period_start,C,m1,H,J0,J1,J2,J3,J4,J5,JA,JB,JC,JD,JJ,JK,JN,#
2017-12-09 00:04:19,0.03,1.61,0.00,20.20,23.50,26.59,14.44,43.64,1044.40,2043.00,2882.33,2697.00,3059.25,600.03,618.16,27.46,0000 0000 0000 0000 000000
2017-12-09 00:09:21,0.00,1.61,0.00,20.21,23.51,26.61,14.38,43.63,1044.42,2043.00,2882.01,2696.99,3059.04,599.98,618.22,27.51,0000 0000 0000 0000 000000
2017-12-09 00:14:22,0.00,1.61,0.00,20.22,23.52,26.60,14.41,43.61,1044.44,2043.00,2881.99,2696.97,3059.00,599.91,618.07,27.56,0000 0000 0000 0000 000000
2017-12-09 00:19:24,0.01,1.61,0.00,20.22,23.52,26.62,14.31,43.58,1044.45,2042.99,2881.89,2696.91,3058.98,600.02,618.03,27.61,0000 0000 0000 0000 000000
2017-12-09 00:24:24,0.04,1.61,0.00,20.23,23.52,26.59,14.35,43.59,1044.45,2042.98,2881.23,2696.39,3058.62,600.04,618.20,27.66,0000 0000 0000 0000 000000
2017-12-09 00:29:26,0.00,1.62,0.00,20.23,23.52,26.62,14.40,43.63,1044.45,2042.98,2881.00,2696.06,3058.11,600.24,618.33,27.71,0000 0000 0000 0000 000000
2017-12-09 00:34:27,0.00,1.62,0.00,20.24,23.54,26.60,14.36,43.61,1044.45,2042.98,2880.98,2696.03,3058.00,599.93,617.98,27.76,0000 0000 0000 0000 000000
2017-12-09 00:39:28,0.01,1.62,0.00,20.24,23.54,26.62,14.41,43.68,1044.45,2042.98,2880.49,2696.01,3058.00,600.10,618.11,27.81,0000 0000 0000 0000 000000
2017-12-09 00:44:30,0.00,1.62,0.00,20.24,23.54,26.66,14.36,43.79,1044.45,2042.98,2880.03,2696.00,3057.97,599.66,617.79,27.86,0000 0000 0000 0000 000000
2017-12-09 00:49:30,0.01,1.62,0.00,20.24,23.55,26.63,14.33,43.67,1044.45,2042.97,2880.00,2695.99,3057.64,600.04,618.15,27.91,0000 0000 0000 0000 000000
2017-12-09 00:54:32,0.01,1.62,0.00,20.24,23.55,26.66,14.39,43.70,1044.45,2042.96,2879.89,2695.96,3057.10,599.98,618.09,27.96,0000 0000 0000 0000 000000
2017-12-09 00:59:33,0.02,1.62,0.00,20.25,23.55,26.66,14.38,43.76,1044.45,2042.94,2879.16,2695.68,3057.01,600.06,618.24,28.01,0000 0000 0000 0000 000000
2017-12-09 01:04:35,0.01,1.62,0.00,20.24,23.55,26.67,14.46,43.84,1044.46,2042.96,2879.01,2695.32,3056.99,600.09,618.20,28.06,0000 0000 0000 0000 000000
2017-12-09 01:09:36,0.00,1.62,0.00,20.24,23.55,26.66,14.32,43.75,1044.48,2042.91,2878.99,2695.04,3056.88,599.90,618.07,28.11,0000 0000 0000 0000 000000
2017-12-09 01:14:37,0.01,1.62,0.00,20.24,23.56,26.68,14.39,43.67,1044.47,2042.88,2878.74,2695.00,3056.31,600.07,618.06,28.16,0000 0000 0000 0000 000000
2017-12-09 01:19:38,0.01,1.62,0.00,20.24,23.57,26.70,14.44,43.73,1044.48,2042.82,2878.06,2695.00,3056.03,599.97,618.01,28.21,0000 0000 0000 0000 000000
2017-12-09 01:24:40,-0.02,1.62,0.00,20.24,23.57,26.68,14.37,43.79,1044.46,2042.66,2878.00,2694.99,3056.00,599.79,618.01,28.26,0000 0000 0000 0000 000000
2017-12-09 01:29:41,-0.02,1.62,0.00,20.24,23.57,26.71,14.43,43.76,1044.47,2042.43,2877.92,2694.98,3056.00,600.17,618.22,28.31,0000 0000 0000 0000 000000
2017-12-09 01:34:42,0.03,1.62,0.00,20.24,23.57,26.67,14.39,43.77,1044.50,2042.38,2877.18,2694.91,3055.89,600.11,618.39,28.36,0000 0000 0000 0000 000000
2017-12-09 01:39:44,0.01,1.62,0.00,20.24,23.57,26.69,14.36,43.86,1044.71,2042.37,2877.00,2694.67,3055.38,600.16,618.27,28.41,0000 0000 0000 0000 000000
2017-12-09 01:44:45,-0.00,1.62,0.00,20.24,23.57,26.67,14.40,43.85,1044.90,2042.27,2877.00,2694.33,3055.04,599.86,618.30,28.46,0000 0000 0000 0000 000000
2017-12-09 01:49:46,0.00,1.62,0.00,20.24,23.57,26.69,14.44,43.75,1044.93,2042.15,2876.78,2694.06,3054.99,600.11,618.52,28.51,0000 0000 0000 0000 000000
2017-12-09 01:54:47,0.01,1.62,0.00,20.24,23.57,26.65,14.41,43.74,1044.94,2042.13,2876.09,2694.01,3054.97,599.95,618.31,28.56,0000 0000 0000 0000 000000
2017-12-09 01:59:49,0.01,1.62,0.00,20.23,23.57,26.65,14.37,43.67,1044.95,2042.07,2876.00,2694.00,3054.72,599.95,618.33,28.61,0000 0000 0000 0000 000000
2017-12-09 02:04:50,0.00,1.62,0.00,20.23,23.57,26.67,14.51,43.76,1044.95,2042.04,2875.95,2694.00,3054.20,600.53,618.94,28.66,0000 0000 0000 0000 000000
2017-12-09 02:09:51,0.01,1.62,0.00,20.23,23.57,26.67,14.45,43.72,1044.96,2042.01,2875.40,2693.98,3054.01,599.98,618.48,28.71,0000 0000 0000 0000 000000
2017-12-09 02:14:53,0.00,1.62,0.00,20.22,23.57,26.68,14.44,43.56,1044.95,2042.00,2875.01,2693.96,3054.00,599.93,618.30,28.76,0000 0000 0000 0000 000000
2017-12-09 02:19:54,0.01,1.62,0.00,20.22,23.57,26.68,14.40,43.61,1044.95,2042.01,2874.99,2693.71,3053.98,600.09,618.55,28.81,0000 0000 0000 0000 000000
2017-12-09 02:24:55,0.01,1.62,0.00,20.22,23.57,26.66,14.42,43.63,1045.00,2042.01,2874.73,2693.56,3053.88,599.99,618.47,28.86,0000 0000 0000 0000 000000
2017-12-09 02:29:56,0.03,1.63,0.00,20.22,23.57,26.70,14.40,43.55,1044.98,2042.01,2874.09,2693.17,3053.38,600.21,618.59,28.91,0000 0000 0000 0000 000000
2017-12-09 02:34:58,0.00,1.63,0.00,20.22,23.57,26.67,14.42,43.61,1045.00,2042.02,2874.00,2693.07,3053.08,599.94,618.52,28.96,0000 0000 0000 0000 000000
2017-12-09 02:39:59,0.00,1.63,0.00,20.20,23.57,26.71,14.38,43.58,1045.13,2042.01,2873.97,2693.01,3053.01,599.81,618.50,29.01,0000 0000 0000 0000 000000
2017-12-09 02:45:00,0.01,1.63,0.00,20.20,23.57,26.68,14.28,43.65,1045.29,2042.01,2873.69,2693.00,3053.00,599.85,618.60,29.06,0000 0000 0000 0000 000000
2017-12-09 02:50:01,0.01,1.63,0.00,20.20,23.57,26.68,14.44,43.70,1045.38,2042.02,2873.11,2693.00,3052.99,600.10,618.71,29.11,0000 0000 0000 0000 000000
2017-12-09 02:55:03,0.00,1.63,0.00,20.21,23.57,26.64,14.45,43.70,1045.42,2042.04,2873.00,2693.00,3052.97,600.01,618.84,29.16,0000 0000 0000 0000 000000
2017-12-09 03:00:04,0.00,1.63,0.00,20.19,23.57,26.67,14.30,43.64,1045.43,2042.02,2872.99,2693.00,3052.81,599.81,618.51,29.21,0000 0000 0000 0000 000000
2017-12-09 03:05:05,0.01,1.63,0.00,20.19,23.57,26.70,14.37,43.52,1045.43,2042.03,2872.89,2692.98,3052.23,599.83,618.60,29.26,0000 0000 0000 0000 000000
2017-12-09 03:10:06,0.01,1.63,0.00,20.19,23.57,26.69,14.40,43.67,1045.43,2042.00,2872.15,2692.91,3052.03,599.82,618.66,29.32,0000 0000 0000 0000 000000
2017-12-09 03:15:08,0.00,1.63,0.00,20.19,23.56,26.69,14.44,43.65,1045.44,2042.01,2872.01,2692.82,3052.00,600.09,618.92,29.37,0000 0000 0000 0000 000000
2017-12-09 03:20:09,0.02,1.63,0.00,20.19,23.56,26.63,14.44,43.67,1045.48,2042.00,2872.00,2692.39,3051.99,599.89,618.65,29.42,0000 0000 0000 0000 000000
2017-12-09 03:25:10,0.01,1.63,0.00,20.19,23.55,26.66,14.42,43.73,1045.50,2042.00,2871.96,2692.06,3051.95,600.16,619.00,29.47,0000 0000 0000 0000 000000
2017-12-09 03:30:11,0.00,1.63,0.00,20.19,23.55,26.66,14.49,43.61,1045.55,2042.01,2871.85,2692.03,3051.82,600.27,619.14,29.52,0000 0000 0000 0000 000000
2017-12-09 03:35:12,0.02,1.63,0.00,20.19,23.55,26.69,14.52,43.61,1045.69,2042.00,2871.32,2692.02,3051.47,600.17,619.12,29.57,0000 0000 0000 0000 000000
2017-12-09 03:40:14,0.00,1.63,0.00,20.19,23.55,26.65,14.41,43.58,1045.72,2042.01,2871.03,2692.00,3051.09,599.96,618.89,29.62,0000 0000 0000 0000 000000
2017-12-09 03:45:15,0.00,1.63,0.00,20.17,23.55,26.67,14.44,43.67,1045.68,2042.01,2871.00,2692.00,3051.02,600.22,619.28,29.67,0000 0000 0000 0000 000000
2017-12-09 03:50:16,-0.00,1.63,0.00,20.17,23.55,26.68,14.45,43.80,1045.72,2042.01,2870.98,2692.00,3051.00,600.01,619.09,29.72,0000 0000 0000 0000 000000
2017-12-09 03:55:18,0.00,1.63,0.00,20.17,23.55,26.68,14.47,43.73,1045.84,2042.01,2870.92,2692.00,3051.00,600.14,619.08,29.77,0000 0000 0000 0000 000000
2017-12-09 04:00:18,0.01,1.63,0.00,20.17,23.54,26.67,14.42,43.80,1045.87,2042.01,2870.52,2692.00,3051.00,600.42,619.68,29.82,0000 0000 0000 0000 000000
2017-12-09 04:05:20,0.00,1.63,0.00,20.17,23.54,26.66,14.42,43.84,1045.87,2042.03,2870.05,2691.99,3050.97,599.85,618.88,29.87,0000 0000 0000 0000 000000
2017-12-09 04:10:22,0.00,1.63,0.00,20.16,23.53,26.63,14.43,43.75,1045.87,2042.03,2870.00,2691.98,3050.93,600.13,619.25,29.92,0000 0000 0000 0000 000000
2017-12-09 04:15:23,0.00,1.64,0.00,20.17,23.52,26.67,14.36,43.71,1045.89,2042.01,2869.99,2691.94,3050.47,599.94,619.06,29.97,0000 0000 0000 0000 000000
2017-12-09 04:20:24,0.01,1.64,0.00,20.15,23.52,26.65,14.41,43.71,1045.91,2042.02,2869.97,2691.93,3050.21,600.34,619.40,30.02,0000 0000 0000 0000 000000
2017-12-09 04:25:25,0.01,1.64,0.00,20.14,23.52,26.64,14.42,43.67,1045.91,2042.02,2869.71,2691.84,3050.06,600.15,619.31,30.07,0000 0000 0000 0000 000000
2017-12-09 04:30:27,0.02,1.64,0.00,20.14,23.52,26.59,14.42,43.67,1045.91,2042.02,2869.14,2691.62,3050.02,600.10,619.36,30.12,0000 0000 0000 0000 000000
2017-12-09 04:35:28,0.01,1.64,0.00,20.14,23.52,26.65,14.43,43.67,1045.91,2042.03,2869.02,2691.22,3050.00,600.04,619.21,30.17,0000 0000 0000 0000 000000
2017-12-09 04:40:29,-0.00,1.64,0.00,20.13,23.52,26.64,14.39,43.67,1045.91,2042.01,2869.00,2691.16,3050.00,599.92,619.06,30.22,0000 0000 0000 0000 000000
2017-12-09 04:45:30,0.00,1.64,0.00,20.12,23.51,26.65,14.34,43.65,1045.91,2042.02,2869.00,2691.05,3049.99,599.66,619.00,30.27,0000 0000 0000 0000 000000
2017-12-09 04:50:31,0.00,1.64,0.00,20.12,23.50,26.64,14.47,43.73,1045.90,2042.03,2868.97,2691.03,3049.97,600.23,619.44,30.32,0000 0000 0000 0000 000000
2017-12-09 04:55:33,0.00,1.64,0.00,20.12,23.50,26.63,14.40,43.69,1045.91,2042.03,2868.95,2691.02,3049.98,600.14,619.39,30.37,0000 0000 0000 0000 000000
2017-12-09 05:00:34,0.00,1.64,0.00,20.11,23.50,26.62,14.41,43.52,1045.91,2042.05,2868.81,2691.01,3049.97,599.80,619.06,30.42,0000 0000 0000 0000 000000
2017-12-09 05:05:35,0.01,1.64,0.00,20.09,23.50,26.60,14.40,43.68,1045.92,2042.03,2868.22,2691.00,3049.82,599.79,619.07,30.47,0000 0000 0000 0000 000000
2017-12-09 05:10:36,0.00,1.64,0.00,20.09,23.50,26.63,14.32,43.62,1045.93,2042.04,2868.07,2691.00,3049.79,599.48,618.73,30.52,0000 0000 0000 0000 000000
2017-12-09 05:15:38,0.01,1.64,0.00,20.09,23.49,26.61,14.43,43.67,1045.93,2042.09,2868.04,2691.00,3049.70,600.02,619.24,30.57,0000 0000 0000 0000 000000
2017-12-09 05:20:39,0.01,1.64,0.00,20.07,23.48,26.60,14.43,43.69,1045.93,2042.12,2868.01,2691.00,3049.39,600.24,619.60,30.62,0000 0000 0000 0000 000000
2017-12-09 05:25:40,0.00,1.64,0.00,20.07,23.47,26.59,14.46,43.68,1045.93,2042.17,2868.00,2691.00,3049.16,600.07,619.46,30.67,0000 0000 0000 0000 000000
2017-12-09 05:30:42,0.01,1.64,0.00,20.07,23.47,26.58,14.38,43.66,1045.94,2042.17,2868.00,2691.00,3049.03,599.89,619.27,30.72,0000 0000 0000 0000 000000
2017-12-09 05:35:43,0.00,1.64,0.00,20.07,23.47,26.62,14.42,43.63,1045.95,2042.14,2867.98,2690.99,3049.02,599.78,619.19,30.77,0000 0000 0000 0000 000000
2017-12-09 05:40:44,0.01,1.64,0.00,20.06,23.47,26.63,14.40,43.58,1045.96,2042.29,2867.94,2690.98,3049.01,600.06,619.36,30.82,0000 0000 0000 0000 000000
2017-12-09 05:45:45,-0.00,1.64,0.00,20.06,23.47,26.59,14.40,43.55,1046.01,2042.25,2867.57,2690.98,3049.00,599.76,619.17,30.87,0000 0000 0000 0000 000000
2017-12-09 05:50:47,0.02,1.64,0.00,20.05,23.46,26.60,14.52,43.55,1046.04,2042.43,2867.28,2690.97,3049.00,600.45,619.90,30.92,0000 0000 0000 0000 000000
2017-12-09 05:55:48,0.02,1.64,0.00,20.04,23.45,26.56,14.38,43.67,1046.31,2042.49,2867.05,2690.96,3049.00,600.02,619.52,30.97,0000 0000 0000 0000 000000
2017-12-09 06:00:49,0.01,1.64,0.00,20.04,23.45,26.60,14.54,43.69,1046.38,2042.75,2867.01,2690.94,3049.00,600.05,619.73,31.02,0000 0000 0000 0000 000000
2017-12-09 06:05:50,0.01,1.65,0.00,20.04,23.45,26.53,14.40,43.63,1046.39,2042.84,2867.00,2690.84,3049.00,599.94,619.53,31.07,0000 0000 0000 0000 000000
2017-12-09 06:10:51,0.01,1.65,0.00,20.03,23.45,26.57,14.38,43.49,1046.40,2042.87,2867.00,2690.69,3048.98,599.81,619.57,31.12,0000 0000 0000 0000 000000
2017-12-09 06:15:52,0.01,1.65,0.00,20.02,23.45,26.58,14.45,43.48,1046.41,2042.92,2866.98,2690.50,3048.97,600.03,619.87,31.17,0000 0000 0000 0000 000000
2017-12-09 06:20:54,0.01,1.65,0.00,20.02,23.44,26.53,14.46,43.44,1046.42,2042.92,2866.94,2690.17,3048.94,600.02,619.70,31.22,0000 0000 0000 0000 000000
2017-12-09 06:25:55,0.01,1.65,0.00,20.02,23.44,26.53,14.42,43.47,1046.42,2042.92,2866.78,2690.08,3048.79,599.84,619.60,31.27,0000 0000 0000 0000 000000
2017-12-09 06:30:56,0.02,1.65,0.00,20.02,23.43,26.55,14.44,43.49,1046.45,2042.84,2866.04,2689.98,3048.05,599.84,619.60,31.32,0000 0000 0000 0000 000000
2017-12-09 06:35:57,0.01,1.65,0.00,19.99,23.42,26.53,14.45,43.54,1046.53,2042.94,2866.00,2689.98,3048.00,600.05,619.92,31.37,0000 0000 0000 0000 000000
2017-12-09 06:40:58,0.01,1.65,0.00,20.00,23.42,26.55,14.48,43.50,1046.48,2042.96,2865.98,2689.94,3047.99,600.08,619.88,31.42,0000 0000 0000 0000 000000
2017-12-09 06:45:59,-0.00,1.65,0.00,19.99,23.42,26.52,14.46,43.58,1046.54,2042.94,2865.96,2689.86,3047.98,600.05,619.93,31.47,0000 0000 0000 0000 000000
2017-12-09 06:51:01,0.04,1.65,0.00,20.00,23.42,26.56,14.46,43.53,1046.51,2042.94,2865.32,2689.32,3047.86,600.01,619.84,31.52,0000 0000 0000 0000 000000
2017-12-09 06:56:02,0.01,1.65,0.00,19.99,23.42,26.52,14.38,43.62,1046.43,2042.95,2865.04,2689.08,3047.50,600.01,619.83,31.57,0000 0000 0000 0000 000000
2017-12-09 07:01:03,0.01,1.65,0.00,19.99,23.42,26.51,14.40,43.55,1046.42,2042.97,2865.02,2689.07,3047.34,599.89,619.72,31.62,0000 0000 0000 0000 000000
2017-12-09 07:06:05,-0.00,1.65,0.00,19.98,23.41,26.50,14.42,43.63,1046.43,2042.96,2865.00,2689.04,3047.08,600.03,619.93,31.67,0000 0000 0000 0000 000000
2017-12-09 07:11:06,-0.00,1.65,0.00,19.97,23.40,26.54,14.51,43.71,1046.44,2042.96,2865.00,2689.03,3047.08,600.40,620.19,31.72,0000 0000 0000 0000 000000
2017-12-09 07:16:07,0.00,1.65,0.00,19.97,23.40,26.52,14.47,43.68,1046.43,2042.98,2865.00,2689.02,3047.02,600.02,619.70,31.77,0000 0000 0000 0000 000000
2017-12-09 07:21:09,0.00,1.65,0.00,19.97,23.40,26.51,14.50,43.79,1046.43,2042.99,2865.00,2689.02,3047.03,600.40,620.19,31.82,0000 0000 0000 0000 000000
2017-12-09 07:26:10,0.00,1.65,0.00,19.96,23.40,26.50,14.55,43.77,1046.42,2042.97,2864.99,2689.01,3047.01,600.08,619.95,31.87,0000 0000 0000 0000 000000
2017-12-09 07:31:11,0.00,1.65,0.00,19.96,23.39,26.52,14.44,43.76,1046.42,2042.99,2864.96,2689.00,3047.00,599.92,619.79,31.92,0000 0000 0000 0000 000000
2017-12-09 07:36:12,-0.00,1.65,0.00,19.95,23.38,26.49,14.37,43.81,1046.42,2042.98,2864.83,2689.00,3047.00,599.98,619.99,31.97,0000 0000 0000 0000 000000
2017-12-09 07:41:14,0.00,1.65,0.00,19.94,23.37,26.50,14.51,43.76,1046.45,2042.99,2864.53,2689.00,3047.00,600.04,619.96,32.02,0000 0000 0000 0000 000000
2017-12-09 07:46:15,0.01,1.65,0.00,19.94,23.37,26.48,14.58,43.77,1046.43,2042.97,2864.14,2689.00,3047.00,600.55,620.49,32.07,0000 0000 0000 0000 000000
2017-12-09 07:51:17,0.00,1.65,0.00,19.95,23.37,26.48,14.46,43.68,1046.43,2042.99,2864.01,2688.99,3046.99,599.82,619.79,32.12,0000 0000 0000 0000 000000
2017-12-09 07:56:17,0.05,1.65,0.00,19.94,23.37,26.52,14.32,43.60,1046.44,2042.99,2863.52,2688.60,3046.43,599.89,619.81,32.17,0000 0000 0000 0000 000000
2017-12-09 08:01:19,0.08,1.66,0.00,19.94,23.37,26.48,14.46,43.63,1046.41,2042.99,2861.94,2687.69,3045.39,600.31,620.16,32.22,0000 0000 0000 0000 000000
2017-12-09 08:06:20,0.05,1.66,0.00,19.93,23.37,26.49,14.42,43.55,1046.42,2042.99,2860.37,2687.00,3044.37,600.26,620.20,32.27,0000 0000 0000 0000 000000
2017-12-09 08:11:21,0.02,1.66,0.00,19.92,23.35,26.48,14.47,43.56,1046.44,2042.99,2859.83,2686.71,3044.00,600.16,620.23,32.33,0000 0000 0000 0000 000000
2017-12-09 08:16:22,0.05,1.67,0.00,19.92,23.35,26.50,14.48,43.52,1046.44,2042.99,2858.86,2686.02,3043.59,600.01,620.01,32.38,0000 0000 0000 0000 000000
2017-12-09 08:21:24,0.19,1.67,0.00,19.92,23.35,26.45,14.37,43.58,1046.42,2042.99,2856.14,2684.29,3041.47,599.71,619.68,32.43,0000 0000 0000 0000 000000
2017-12-09 08:26:25,0.34,1.69,0.00,19.91,23.35,26.47,14.44,43.66,1046.42,2043.00,2850.10,2680.29,3037.04,600.44,620.42,32.48,0000 0000 0000 0000 000000
2017-12-09 08:31:26,0.21,1.70,0.00,19.90,23.34,26.48,14.38,43.83,1046.40,2043.00,2845.34,2677.33,3033.63,599.95,619.88,32.53,0000 0000 0000 0000 000000
2017-12-09 08:36:27,0.03,1.71,0.00,19.89,23.32,26.45,14.46,43.90,1046.39,2043.00,2844.04,2676.53,3032.99,600.04,620.06,32.58,0000 0000 0000 0000 000000
2017-12-09 08:41:29,0.01,1.71,0.00,19.89,23.32,26.45,14.35,43.82,1046.36,2043.00,2844.00,2676.09,3032.95,600.06,620.01,32.63,0000 0000 0000 0000 000000
2017-12-09 08:46:30,0.00,1.71,0.00,19.88,23.32,26.46,14.47,43.85,1046.36,2043.00,2843.96,2676.02,3032.84,599.90,619.89,32.68,0000 0000 0000 0000 000000
2017-12-09 08:51:31,0.02,1.71,0.00,19.87,23.31,26.46,14.47,43.88,1046.17,2043.01,2843.37,2676.01,3032.62,600.00,620.11,32.73,0000 0000 0000 0000 000000
2017-12-09 08:56:33,0.01,1.71,0.00,19.87,23.30,26.46,14.50,44.02,1046.02,2043.04,2843.00,2675.99,3032.22,599.95,619.79,32.78,0000 0000 0000 0000 000000
2017-12-09 09:01:34,0.02,1.71,0.00,19.87,23.29,26.46,14.41,43.98,1045.94,2043.06,2842.32,2675.88,3032.00,599.87,619.70,32.83,0000 0000 0000 0000 000000
2017-12-09 09:06:35,0.06,1.71,0.00,19.85,23.29,26.46,14.34,43.86,1045.95,2043.09,2841.68,2675.15,3031.49,599.62,619.43,32.88,0000 0000 0000 0000 000000
2017-12-09 09:11:36,0.06,1.72,0.00,19.84,23.28,26.40,14.36,43.93,1046.05,2043.05,2840.60,2674.47,3030.57,599.58,619.49,32.93,0000 0000 0000 0000 000000
2017-12-09 09:16:38,0.07,1.72,0.00,19.83,23.27,26.39,14.52,43.97,1046.16,2043.06,2839.14,2673.43,3029.45,600.32,620.14,32.98,0000 0000 0000 0000 000000
2017-12-09 09:21:39,0.03,1.72,0.00,19.83,23.27,26.41,14.44,44.06,1046.32,2043.10,2838.02,2672.97,3028.88,599.89,620.13,33.03,0000 0000 0000 0000 000000
2017-12-09 09:26:40,0.06,1.73,0.00,19.82,23.27,26.41,14.45,43.93,1046.34,2043.12,2837.14,2672.33,3028.10,600.14,620.26,33.08,0000 0000 0000 0000 000000
2017-12-09 09:31:42,0.03,1.73,0.00,19.82,23.25,26.40,14.39,43.80,1046.39,2043.35,2836.95,2672.02,3028.01,599.89,620.12,33.13,0000 0000 0000 0000 000000
2017-12-09 09:36:43,0.03,1.73,0.00,19.82,23.25,26.40,14.34,43.91,1046.40,2043.52,2836.22,2672.00,3028.00,599.90,620.15,33.18,0000 0000 0000 0000 000000
2017-12-09 09:41:45,0.02,1.73,0.00,19.80,23.24,26.36,14.32,43.95,1046.39,2043.66,2835.99,2672.00,3027.97,599.81,620.00,33.23,0000 0000 0000 0000 000000
2017-12-09 09:46:45,0.01,1.73,0.00,19.81,23.24,26.38,14.33,43.99,1046.40,2043.85,2835.96,2672.00,3027.91,599.69,619.93,33.29,0000 0000 0000 0000 000000
2017-12-09 09:51:47,0.03,1.73,0.00,19.81,23.24,26.41,14.47,43.94,1046.40,2043.94,2835.44,2671.99,3027.52,600.00,620.25,33.34,0000 0000 0000 0000 000000
2017-12-09 09:56:48,0.01,1.73,0.00,19.81,23.24,26.37,14.42,44.01,1046.40,2043.98,2835.03,2671.98,3027.16,599.96,620.19,33.39,0000 0000 0000 0000 000000
2017-12-09 10:01:49,0.00,1.73,0.00,19.82,23.24,26.36,14.40,44.08,1046.43,2043.97,2834.99,2671.97,3027.03,599.86,619.78,33.44,0000 0000 0000 0000 000000
2017-12-09 10:06:50,0.02,1.73,0.00,19.82,23.24,26.37,14.47,44.04,1046.47,2043.96,2834.62,2671.77,3026.99,600.15,620.36,33.49,0000 0000 0000 0000 000000
2017-12-09 10:11:51,0.02,1.74,0.00,19.82,23.24,26.32,14.34,43.97,1046.50,2043.96,2834.03,2671.24,3026.93,599.70,619.96,33.54,0000 0000 0000 0000 000000
2017-12-09 10:16:53,0.01,1.74,0.00,19.82,23.24,26.35,14.48,44.07,1046.60,2043.97,2834.00,2671.09,3026.61,599.73,619.94,33.59,0000 0000 0000 0000 000000
2017-12-09 10:21:54,0.02,1.74,0.00,19.82,23.24,26.39,14.41,43.89,1046.72,2043.98,2833.48,2671.02,3026.06,599.85,620.22,33.64,0000 0000 0000 0000 000000
2017-12-09 10:26:55,0.01,1.74,0.00,19.83,23.24,26.36,14.50,44.02,1046.80,2043.98,2833.02,2671.00,3026.00,599.81,620.07,33.69,0000 0000 0000 0000 000000
2017-12-09 10:31:57,0.00,1.74,0.00,19.83,23.24,26.34,14.48,43.99,1046.75,2043.97,2832.95,2670.99,3025.99,600.16,620.46,33.74,0000 0000 0000 0000 000000
2017-12-09 10:36:58,0.02,1.74,0.00,19.84,23.24,26.35,14.45,43.92,1046.85,2043.96,2832.35,2670.97,3025.84,599.97,620.30,33.79,0000 0000 0000 0000 000000
2017-12-09 10:42:00,0.02,1.74,0.00,19.84,23.23,26.36,14.52,43.97,1046.87,2043.96,2832.02,2670.71,3025.17,599.97,620.36,33.84,0000 0000 0000 0000 000000
2017-12-09 10:47:01,0.01,1.74,0.00,19.84,23.23,26.37,14.54,44.00,1046.88,2043.95,2831.97,2670.20,3025.00,600.23,620.63,33.89,0000 0000 0000 0000 000000
2017-12-09 10:52:02,0.02,1.74,0.00,19.84,23.23,26.38,14.47,43.98,1046.89,2043.96,2831.39,2670.05,3024.99,600.04,620.44,33.94,0000 0000 0000 0000 000000
2017-12-09 10:57:03,0.01,1.74,0.00,19.84,23.23,26.37,14.48,43.99,1046.89,2043.96,2831.01,2670.00,3024.68,600.05,620.38,33.99,0000 0000 0000 0000 000000
2017-12-09 11:02:04,0.01,1.74,0.00,19.85,23.23,26.37,14.43,43.98,1046.89,2043.94,2830.91,2670.00,3024.07,600.05,620.49,34.04,0000 0000 0000 0000 000000
2017-12-09 11:07:06,0.01,1.74,0.00,19.85,23.23,26.34,14.40,43.92,1046.90,2043.92,2830.21,2669.99,3024.00,599.65,620.08,34.09,0000 0000 0000 0000 000000
2017-12-09 11:12:07,0.01,1.75,0.00,19.85,23.22,26.36,14.43,43.88,1046.90,2043.94,2830.00,2669.92,3024.00,599.92,620.24,34.15,0000 0000 0000 0000 000000
2017-12-09 11:17:08,0.01,1.75,0.00,19.84,23.22,26.35,14.53,43.92,1046.94,2043.89,2829.96,2669.60,3023.93,600.23,620.66,34.20,0000 0000 0000 0000 000000
2017-12-09 11:22:09,0.04,1.75,0.00,19.84,23.22,26.33,14.43,43.92,1046.92,2043.86,2829.31,2669.10,3023.29,599.88,620.21,34.25,0000 0000 0000 0000 000000
2017-12-09 11:27:10,0.01,1.75,0.00,19.84,23.22,26.39,14.43,43.93,1046.92,2043.89,2829.03,2669.02,3023.02,599.89,620.27,34.30,0000 0000 0000 0000 000000
2017-12-09 11:32:11,0.00,1.75,0.00,19.84,23.22,26.36,14.46,43.99,1046.95,2043.87,2828.99,2669.00,3023.00,600.05,620.47,34.35,0000 0000 0000 0000 000000
2017-12-09 11:37:13,0.01,1.75,0.00,19.84,23.22,26.35,14.55,43.99,1046.98,2043.83,2828.64,2669.00,3022.97,600.03,620.39,34.40,0000 0000 0000 0000 000000
2017-12-09 11:42:14,0.01,1.75,0.00,19.84,23.22,26.32,14.48,43.94,1047.04,2043.81,2828.05,2668.97,3022.77,600.02,620.43,34.45,0000 0000 0000 0000 000000
2017-12-09 11:47:15,0.01,1.75,0.00,19.84,23.22,26.32,14.37,43.92,1047.03,2043.88,2828.00,2668.97,3022.19,599.80,620.23,34.50,0000 0000 0000 0000 000000
2017-12-09 11:52:17,0.01,1.75,0.00,19.84,23.22,26.34,14.54,43.98,1047.03,2043.91,2827.99,2668.89,3022.03,600.38,620.66,34.55,0000 0000 0000 0000 000000
2017-12-09 11:57:18,0.03,1.75,0.00,19.84,23.22,26.35,14.56,44.01,1047.12,2043.97,2827.48,2668.53,3022.00,600.37,620.95,34.60,0000 0000 0000 0000 000000
2017-12-09 12:02:19,0.00,1.75,0.00,19.85,23.22,26.33,14.46,43.98,1047.02,2043.92,2827.03,2668.08,3022.00,600.19,620.63,34.65,0000 0000 0000 0000 000000
2017-12-09 12:07:20,0.00,1.75,0.00,19.84,23.22,26.34,14.40,43.88,1047.04,2043.93,2826.99,2668.01,3021.91,599.94,620.37,34.70,0000 0000 0000 0000 000000
2017-12-09 12:12:22,0.02,1.75,0.00,19.84,23.22,26.31,14.43,43.89,1046.97,2043.96,2826.63,2668.00,3021.37,599.97,620.40,34.75,0000 0000 0000 0000 000000
2017-12-09 12:17:23,0.01,1.76,0.00,19.84,23.21,26.32,14.46,43.93,1046.93,2043.95,2826.05,2667.99,3021.05,600.18,620.69,34.80,0000 0000 0000 0000 000000
2017-12-09 12:22:24,-0.00,1.76,0.00,19.84,23.20,26.31,14.37,43.89,1046.92,2043.94,2825.99,2667.97,3021.00,600.21,620.75,34.85,0000 0000 0000 0000 000000
2017-12-09 12:27:26,0.01,1.76,0.00,19.84,23.20,26.35,14.53,43.97,1046.90,2043.91,2825.89,2667.81,3020.99,600.39,620.81,34.90,0000 0000 0000 0000 000000
2017-12-09 12:32:27,0.02,1.76,0.00,19.84,23.20,26.33,14.49,43.92,1046.90,2043.91,2825.18,2667.31,3020.90,600.15,620.45,34.95,0000 0000 0000 0000 000000
2017-12-09 12:37:28,0.01,1.76,0.00,19.84,23.20,26.34,14.49,43.84,1046.91,2043.97,2825.01,2667.09,3020.64,600.11,620.70,35.00,0000 0000 0000 0000 000000
2017-12-09 12:42:29,0.01,1.76,0.00,19.84,23.20,26.33,14.49,43.78,1046.91,2043.97,2825.00,2667.04,3020.15,599.94,620.35,35.06,0000 0000 0000 0000 000000
2017-12-09 12:47:30,0.00,1.76,0.00,19.83,23.20,26.36,14.47,43.66,1046.89,2043.99,2824.96,2667.01,3020.01,599.80,620.21,35.11,0000 0000 0000 0000 000000
2017-12-09 12:52:31,0.01,1.76,0.00,19.83,23.20,26.34,14.44,43.64,1046.89,2043.98,2824.34,2667.00,3020.00,600.14,620.47,35.16,0000 0000 0000 0000 000000
2017-12-09 12:57:33,0.00,1.76,0.00,19.82,23.19,26.33,14.44,43.60,1046.89,2043.97,2824.02,2666.98,3019.99,599.75,620.17,35.21,0000 0000 0000 0000 000000